Weather in Myadel

Belarus     54°52′15″N   26°55′39″E
temp.,
°C
wind,
m/s
gust,
m/s
humid.,
%
clouds,
%
prec.,
mm/h
press.,
hPa
HPBL,
m
24 july, sat
sat2400:00+16nw37965 0.3 1014185
03:00+12nnw239114 0.3 101556
06:00+11nw23928 0.0 101567
09:00+16nw24705 0.0 1016380
12:00+21n22474 0.0 10161148
15:00+23n22405 0.0 10151566
18:00+23n224362 0.0 10161589
21:00+17ne116750 0.0 101613
25 july, sun
sun2500:00+14s00720 0.0 101711
03:00+13sw01790 0.0 101810
06:00+13s00790 0.0 101910
09:00+20se11575 0.0 1019300
12:00+25ssw12445 0.0 10191476
15:00+25ssw224698 0.0 10191839
18:00+23ene1161100 0.0 101915
21:00+21sse116577 0.0 101912
26 july, mon
mon2600:00+19sse237096 0.0 102044
03:00+18sse227519 0.0 102038
06:00+16se22830 0.0 102137
09:00+22sse34601 0.0 1021382
12:00+26sse34435 0.0 10211769
15:00+25se245188 0.0 1020217
18:00+27sse45425 0.0 10192407
21:00+21ese226976 0.0 101936
27 july, tue
tue2700:00+18se38718 0.0 1020140
03:00+17se3107765 0.0 1020195
06:00+16se39805 0.0 1019188
09:00+23se59594 0.0 1019453
12:00+27sse6845100 0.0 10181359
15:00+28se584290 0.0 10162016
18:00+28se5845100 0.0 10151718
21:00+22se3868100 0.3 1014210
28 july, wed
wed2800:00+18wsw3693100 1.1 1015123
03:00+18ene1198100 3.8 101329
06:00+18ese389844 0.8 1012293
09:00+20sse359487 1.1 1011416
12:00+21sse238653 0.4 1010509
15:00+24sw237562 1.6 1009820
18:00+25sw127078 0.5 1007627
21:00+21n348798 0.8 100672